This is the latest recevied weather packets stored in our database for station/object N4RCT. If no packets are shown the sender has not sent any weather packets the latest 10 day(s).
| Time | Temp. | Humidity | Pressure | Rain* | Wind** | Luminosity | Snow |
|---|---|---|---|---|---|---|---|
| 1777981712 | 9.44° C | 96% | 1014.2 hPa | 0 mm | - | 50 W/m² | - |
| 1777981409 | 9.44° C | 97% | 1014.2 hPa | 0 mm | - | 43 W/m² | - |
| 1777981105 | 8.89° C | 97% | 1014.2 hPa | 0 mm | - | 32 W/m² | - |
| 1777980801 | 8.89° C | 97% | 1014.1 hPa | 0 mm | - | 29 W/m² | - |
| 1777980497 | 8.89° C | 97% | 1013.9 hPa | 0 mm | - | 27 W/m² | - |
| 1777980195 | 8.33° C | 97% | 1013.7 hPa | 0 mm | - | 20 W/m² | - |
| 1777979890 | 8.33° C | 97% | 1013.7 hPa | 0 mm | - | 19 W/m² | - |
| 1777979586 | 8.33° C | 97% | 1013.5 hPa | 0 mm | - | 18 W/m² | - |
| 1777979282 | 8.33° C | 97% | 1013.5 hPa | 0 mm | - | 15 W/m² | - |
| 1777978980 | 7.78° C | 97% | 1013.5 hPa | 0 mm | - | 10 W/m² | - |
| 1777978677 | 7.78° C | 97% | 1013.2 hPa | 0 mm | - | 6 W/m² | - |
| 1777978372 | 7.78° C | 97% | 1013.2 hPa | 0 mm | - | 4 W/m² | - |
| 1777978069 | 7.78° C | 97% | 1013.1 hPa | 0 mm | - | 1 W/m² | - |
| 1777977767 | 7.78° C | 97% | 1013.5 hPa | 0 mm | - | 0 W/m² | - |
| 1777977462 | 7.78° C | 97% | 1013.3 hPa | 0 mm | - | 0 W/m² | - |
| 1777977161 | 7.78° C | 97% | 1013.3 hPa | 0 mm | - | 0 W/m² | - |
| 1777976857 | 8.33° C | 97% | 1013.5 hPa | 0 mm | - | 0 W/m² | - |
| 1777976556 | 7.78° C | 97% | 1013.5 hPa | 0 mm | - | 0 W/m² | - |
| 1777976254 | 7.78° C | 97% | 1013.2 hPa | 0 mm | - | 0 W/m² | - |
| 1777975950 | 8.33° C | 96% | 1013.1 hPa | 0 mm | - | 0 W/m² | - |
| 1777975647 | 8.33° C | 96% | 1013.5 hPa | 0 mm | - | 0 W/m² | - |
| 1777975343 | 8.33° C | 96% | 1013.3 hPa | 0 mm | - | 0 W/m² | - |
| 1777975038 | 8.33° C | 96% | 1013.2 hPa | 0 mm | - | 0 W/m² | - |
| 1777974737 | 8.33° C | 96% | 1013 hPa | 0 mm | - | 0 W/m² | - |
| 1777974432 | 8.33° C | 96% | 1013 hPa | 0 mm | - | 0 W/m² | - |
* Rain latest hour (hover to see other rain measurements)
** Current wind speed in m/s (hover to see current wind gust speed)